timestamp,surface_pressure_avg,surface_temp_avg,battery_voltage,lat,long
2021-03-01 00:09:01+00:00,350.5012,1.0,12.41,47.84626,-54.09684
2021-03-01 00:19:01+00:00,355.423,0.94,12.41,47.84626,-54.09684
2021-03-01 00:29:01+00:00,358.4313,0.9,12.41,47.84626,-54.09684
2021-03-01 00:39:01+00:00,356.5247,0.9,12.41,47.84626,-54.09684
2021-03-01 00:49:01+00:00,356.5446,0.8,12.41,47.84626,-54.09684
2021-03-01 00:59:01+00:00,358.4779,0.75,12.41,47.84626,-54.09684
2021-03-01 01:09:01+00:00,355.853,0.7,12.41,47.84626,-54.09684
2021-03-01 01:19:01+00:00,350.718,0.68,12.41,47.84626,-54.09684
2021-03-01 01:29:01+00:00,351.3162,0.66,12.41,47.84626,-54.09684
2021-03-01 01:39:01+00:00,350.0763,0.6,12.41,47.84626,-54.09684
2021-03-01 01:49:01+00:00,343.0812,0.6,12.41,47.84626,-54.09684
2021-03-01 01:59:01+00:00,340.3063,0.5,12.41,47.84626,-54.09684
2021-03-01 02:09:01+00:00,341.4380000000001,0.5,12.41,47.84626,-54.09684
2021-03-01 02:19:01+00:00,332.793,0.5,12.41,47.84626,-54.09684
2021-03-01 02:29:01+00:00,324.618,0.5,12.41,47.84626,-54.09684
2021-03-01 02:39:01+00:00,325.9446,0.58,12.41,47.84626,-54.09684
2021-03-01 02:49:01+00:00,317.1514,0.5,12.41,47.84626,-54.09684
2021-03-01 02:59:01+00:00,298.783,0.5,12.41,47.84626,-54.09684
2021-03-01 03:09:01+00:00,291.793,0.5,12.41,47.84626,-54.09684
2021-03-01 03:19:01+00:00,292.1396,0.5,12.41,47.84626,-54.09684
2021-03-01 03:29:01+00:00,278.5313,0.5,12.41,47.84626,-54.09684
2021-03-01 03:39:01+00:00,266.9431,0.5,12.41,47.84626,-54.09684
2021-03-01 03:49:01+00:00,263.2864,0.5,12.41,47.84626,-54.09684
2021-03-01 03:59:01+00:00,254.808,0.5,12.41,47.84626,-54.09684
2021-03-01 04:09:01+00:00,239.3498,0.48,12.41,47.84626,-54.09684
2021-03-01 04:19:01+00:00,230.2331,0.49,12.41,47.84626,-54.09684
2021-03-01 04:29:01+00:00,223.6198,0.5,12.41,47.84626,-54.09684
2021-03-01 04:39:01+00:00,210.4514,0.49,12.41,47.84626,-54.09684
2021-03-01 04:49:01+00:00,198.4531,0.4,12.41,47.84626,-54.09684
2021-03-01 04:59:01+00:00,197.6448,0.41,12.41,47.84626,-54.09684
2021-03-01 05:09:01+00:00,188.7365,0.41,12.41,47.84626,-54.09684
2021-03-01 05:19:01+00:00,175.1548,0.4,12.41,47.84626,-54.09684
2021-03-01 05:29:01+00:00,177.8315,0.4,12.41,47.84626,-54.09684
2021-03-01 05:39:01+00:00,176.2531,0.4,12.41,47.84626,-54.09684
2021-03-01 05:49:01+00:00,162.2715,0.4,12.41,47.84626,-54.09684
2021-03-01 05:59:01+00:00,158.6881,0.4,12.41,47.84626,-54.09684
2021-03-01 06:09:01+00:00,162.5432,0.4,12.41,47.84626,-54.09684
2021-03-01 06:19:01+00:00,156.7198,0.4,12.41,47.84626,-54.09684
2021-03-01 06:29:01+00:00,149.0182,0.4,12.41,47.84626,-54.09684
2021-03-01 06:39:01+00:00,152.6032,0.4,12.41,47.84626,-54.09684
2021-03-01 06:49:01+00:00,151.8682,0.4,12.41,47.84626,-54.09684
2021-03-01 06:59:01+00:00,146.9598,0.39,12.41,47.84626,-54.09684
2021-03-01 07:09:01+00:00,152.5782,0.4,12.41,47.84626,-54.09684
2021-03-01 07:19:01+00:00,158.0215,0.4,12.41,47.84626,-54.09684
2021-03-01 07:29:01+00:00,158.4298,0.38,12.41,47.84626,-54.09684
2021-03-01 07:39:01+00:00,164.9565,0.4,12.41,47.84626,-54.09684
2021-03-01 07:49:01+00:00,172.9098,0.49,12.41,47.84626,-54.09684
2021-03-01 07:59:01+00:00,179.4681,0.5,12.41,47.84626,-54.09684
2021-03-01 08:09:01+00:00,185.1148,0.4,12.41,47.84626,-54.09684
2021-03-01 08:19:01+00:00,192.6648,0.41,12.41,47.84626,-54.09684
2021-03-01 08:29:01+00:00,200.1414,0.47,12.41,47.84626,-54.09684
2021-03-01 08:39:01+00:00,207.1065,0.49,12.41,47.84626,-54.09684
2021-03-01 08:49:01+00:00,212.8181,0.5,12.41,47.84626,-54.09684
2021-03-01 08:59:01+00:00,213.4298,0.58,12.41,47.84626,-54.09684
2021-03-01 09:09:01+00:00,215.0148,0.69,12.41,47.84626,-54.09684
2021-03-01 09:19:01+00:00,223.4114,0.7,12.41,47.84626,-54.09684
2021-03-01 09:29:01+00:00,232.1497,0.76,12.41,47.84626,-54.09684
2021-03-01 09:39:01+00:00,234.9547,0.73,12.41,47.84626,-54.09684
2021-03-01 09:49:01+00:00,241.5364,0.6,12.41,47.84626,-54.09684
2021-03-01 09:59:01+00:00,248.7114,0.64,12.41,47.84626,-54.09684
2021-03-01 10:09:01+00:00,251.5697,0.7,12.41,47.84626,-54.09684
2021-03-01 10:19:01+00:00,254.6397,0.7,12.41,47.84626,-54.09684
2021-03-01 10:29:01+00:00,261.5898,0.7,12.41,47.84626,-54.09684
2021-03-01 10:39:01+00:00,268.9514,0.6,12.41,47.84626,-54.09684
2021-03-01 10:49:01+00:00,274.2014,0.59,12.41,47.84626,-54.09684
2021-03-01 10:59:01+00:00,284.9764,0.73,12.41,47.84626,-54.09684
2021-03-01 11:09:01+00:00,295.918,0.9,12.41,47.84626,-54.09684
2021-03-01 11:19:01+00:00,303.193,0.9,12.41,47.84626,-54.09684
2021-03-01 11:29:01+00:00,313.1931,0.9,12.41,47.84626,-54.09684
2021-03-01 11:39:01+00:00,330.1647,0.8,12.41,47.84626,-54.09684
2021-03-01 11:49:01+00:00,341.1931,0.7,12.41,47.84626,-54.09684
2021-03-01 11:59:01+00:00,344.353,0.69,12.41,47.84626,-54.09684
2021-03-01 12:09:01+00:00,351.543,0.7,12.41,47.84626,-54.09684
2021-03-01 12:19:01+00:00,366.4595,0.7,12.41,47.84626,-54.09684
2021-03-01 12:29:01+00:00,371.1712,0.73,12.41,47.84626,-54.09684
2021-03-01 12:39:01+00:00,370.3246,0.78,12.41,47.84626,-54.09684
2021-03-01 12:49:01+00:00,382.4763,0.85,12.41,47.84626,-54.09684
2021-03-01 12:59:01+00:00,389.9562,0.94,12.41,47.84626,-54.09684
2021-03-01 13:09:01+00:00,383.1512,0.99,12.41,47.84626,-54.09684
2021-03-01 13:19:01+00:00,383.0797,0.9,12.41,47.84626,-54.09684
2021-03-01 13:29:01+00:00,393.74300000000005,0.97,12.41,47.84626,-54.09684
2021-03-01 13:39:01+00:00,392.5012,1.0,12.41,47.84626,-54.09684
2021-03-01 13:49:01+00:00,386.2996,0.9,12.41,47.84626,-54.09684
2021-03-01 13:59:01+00:00,387.4279,0.9,12.41,47.84626,-54.09684
2021-03-01 14:09:01+00:00,390.9546,0.9,12.41,47.84626,-54.09684
2021-03-01 14:19:01+00:00,383.99800000000016,0.9,12.49,47.84626,-54.09684
2021-03-01 14:29:01+00:00,376.5712,0.8,12.49,47.84626,-54.09684
2021-03-01 14:39:01+00:00,379.6363,0.8,12.49,47.84626,-54.09684
2021-03-01 14:49:01+00:00,379.3679,0.84,12.49,47.84626,-54.09684
2021-03-01 14:59:01+00:00,366.3497,0.89,12.49,47.84626,-54.09684
2021-03-01 15:09:01+00:00,355.478,0.8,12.49,47.84626,-54.09684
2021-03-01 15:19:01+00:00,353.1263,0.83,12.57,47.84626,-54.09684
2021-03-01 15:29:01+00:00,342.2196,0.84,12.57,47.84626,-54.09684
2021-03-01 15:39:01+00:00,329.908,0.88,12.57,47.84626,-54.09684
2021-03-01 15:49:01+00:00,329.5996,0.9,12.57,47.84626,-54.09684
2021-03-01 15:59:01+00:00,322.5646,0.9,12.57,47.84626,-54.09684
2021-03-01 16:09:01+00:00,307.6714,0.9,12.57,47.84626,-54.09684
2021-03-01 16:19:01+00:00,299.2596,0.9,12.57,47.84626,-54.09684
2021-03-01 16:29:01+00:00,292.0697,0.9,12.57,47.84626,-54.09684
2021-03-01 16:39:01+00:00,276.3114,1.0,12.57,47.84626,-54.09684
2021-03-01 16:49:01+00:00,261.3481,1.02,12.57,47.84626,-54.09684
2021-03-01 16:59:01+00:00,253.0731,1.04,12.57,47.84626,-54.09684
2021-03-01 17:09:01+00:00,241.7498,1.07,12.57,47.84626,-54.09684
2021-03-01 17:19:01+00:00,226.4698,1.07,12.65,47.84626,-54.09684
2021-03-01 17:29:01+00:00,219.0881,1.1,12.65,47.84626,-54.09684
2021-03-01 17:39:01+00:00,218.9364,1.1,12.65,47.84626,-54.09684
2021-03-01 17:49:01+00:00,214.2648,1.1,12.65,47.84626,-54.09684
2021-03-01 17:59:01+00:00,203.9465,1.1,12.65,47.84626,-54.09684
2021-03-01 18:09:01+00:00,193.3881,1.1,12.65,47.84626,-54.09684
2021-03-01 18:19:01+00:00,184.9532,1.1,12.73,47.84626,-54.09684
2021-03-01 18:29:01+00:00,179.6432,1.1,12.73,47.84626,-54.09684
2021-03-01 18:39:01+00:00,180.5115,1.1,12.73,47.84626,-54.09684
2021-03-01 18:49:01+00:00,177.5715,1.1,12.73,47.84626,-54.09684
2021-03-01 18:59:01+00:00,173.0598,1.1,12.73,47.84626,-54.09684
2021-03-01 19:09:01+00:00,175.1481,1.1,12.73,47.84626,-54.09684
2021-03-01 19:19:01+00:00,171.5265,1.1,12.65,47.84626,-54.09684
2021-03-01 19:29:01+00:00,165.4332,1.11,12.65,47.84626,-54.09684
2021-03-01 19:39:01+00:00,172.2865,1.13,12.65,47.84626,-54.09684
2021-03-01 19:49:01+00:00,181.2798,1.14,12.65,47.84626,-54.09684
2021-03-01 19:59:01+00:00,177.4748,1.16,12.65,47.84626,-54.09684
2021-03-01 20:09:01+00:00,181.9398,1.16,12.65,47.84626,-54.09684
2021-03-01 20:19:01+00:00,194.9715,1.16,12.57,47.84626,-54.09684
2021-03-01 20:29:01+00:00,196.8314,1.18,12.57,47.84626,-54.09684
2021-03-01 20:39:01+00:00,199.7615,1.17,12.57,47.84626,-54.09684
2021-03-01 20:49:01+00:00,207.1364,1.15,12.57,47.84626,-54.09684
2021-03-01 20:59:01+00:00,214.9648,1.13,12.57,47.84626,-54.09684
2021-03-01 21:09:01+00:00,214.8914,1.12,12.57,47.84626,-54.09684
2021-03-01 21:19:01+00:00,212.6948,1.1,12.49,47.84626,-54.09684
2021-03-01 21:29:01+00:00,216.1548,1.1,12.49,47.84626,-54.09684
2021-03-01 21:39:01+00:00,226.6631,1.1,12.49,47.84626,-54.09684
2021-03-01 21:49:01+00:00,239.2881,1.1,12.49,47.84626,-54.09684
2021-03-01 21:59:01+00:00,245.733,1.11,12.49,47.84626,-54.09684
2021-03-01 22:09:01+00:00,253.0381,1.11,12.49,47.84626,-54.09684
2021-03-01 22:19:01+00:00,259.1547,1.1,12.41,47.84626,-54.09684
2021-03-01 22:29:01+00:00,263.8981,1.1,12.41,47.84626,-54.09684
2021-03-01 22:39:01+00:00,265.3297,1.1,12.41,47.84626,-54.09684
2021-03-01 22:49:01+00:00,272.6964,1.1,12.41,47.84626,-54.09684
2021-03-01 22:59:01+00:00,280.453,1.1,12.41,47.84626,-54.09684
2021-03-01 23:09:01+00:00,283.5598,1.1,12.41,47.84626,-54.09684
2021-03-01 23:19:01+00:00,285.2697,1.1,12.41,47.84626,-54.09684
2021-03-01 23:29:01+00:00,293.8464,1.1,12.41,47.84626,-54.09684
2021-03-01 23:39:01+00:00,305.9263,1.1,12.41,47.84626,-54.09684
2021-03-01 23:49:01+00:00,319.0264,1.1,12.41,47.84626,-54.09684
2021-03-01 23:59:01+00:00,335.1663,1.1,12.41,47.84626,-54.09684
